FW6147 Weather Reports


Display with metric or nautical units.
time (UTC)temp
F
wind
direction
speed
MPH
gust
MPH
rain 1hr
in
rain 24hr
in
rain mn
in
humidity
%
barometer
mb
20210615034056 90 304 7.0 17.0 0.01 0.01 0.01 16 1017.5
20210615033553 91 333 11.0 17.0 0.01 0.01 0.01 17 1017.5
20210615033105 90 298 5.0 24.0 0.01 0.01 0.01 24 1017.8
20210615032607 89 304 6.0 30.0 0.01 0.01 0.01 19 1018.4
20210615032055 89 61 18.0 30.0 0.00 0.00 0.00 23 1018.5
20210615031623 90 360 8.0 11.0 0.00 0.00 0.00 18 1018.4
20210615031053 92 359 4.0 11.0 0.00 0.00 0.00 14 1018.1
20210615030557 93 323 5.0 12.0 0.00 0.00 0.00 13 1017.6
20210615030125 93 292 8.0 12.0 0.00 0.00 0.00 14 1017.3
20210615025557 93 284 8.0 17.0 0.00 0.00 0.00 14 1017.2
20210615025053 93 302 11.0 18.0 0.00 0.00 0.00 14 1017.1
20210615024649 94 293 12.0 22.0 0.00 0.00 0.00 14 1017.1
20210615024055 94 284 15.0 22.0 0.00 0.00 0.00 14 1017.1
20210615023607 94 307 9.0 17.0 0.00 0.00 0.00 14 1017.1
20210615023147 94 297 12.0 17.0 0.00 0.00 0.00 14 1017.0
20210615022555 93 302 3.0 6.0 0.00 0.00 0.00 16 1017.0
20210615022056 93 252 2.0 5.0 0.00 0.00 0.00 16 1016.9
20210615021652 93 244 2.0 8.0 0.00 0.00 0.00 15 1016.9
20210615021056 93 278 3.0 8.0 0.00 0.00 0.00 15 1016.8
20210615020556 93 252 3.0 5.0 0.00 0.00 0.00 16 1016.7
20210615020124 94 282 1.0 4.0 0.00 0.00 0.00 15 1016.6
20210615015607 94 262 2.0 4.0 0.00 0.00 0.00 14 1016.6
20210615015057 94 269 1.0 4.0 0.00 0.00 0.00 14 1016.6
20210615014614 94 0 0.0 4.0 0.00 0.00 0.00 15 1016.5
20210615014106 95 242 1.0 5.0 0.00 0.00 0.00 15 1016.6
20210615013605 96 222 3.0 5.0 0.00 0.00 0.00 15 1016.6
20210615013222 96 235 1.0 7.0 0.00 0.00 0.00 14 1016.5
20210615012603 97 236 2.0 7.0 0.00 0.00 0.00 14 1016.5
20210615012056 97 276 2.0 5.0 0.00 0.00 0.00 13 1016.5
20210615011654 97 256 2.0 6.0 0.00 0.00 0.00 12 1016.5
20210615011109 97 242 1.0 15.0 0.00 0.00 0.00 12 1016.5
20210615010555 98 197 4.0 20.0 0.00 0.00 0.00 11 1016.5
20210615010230 98 184 12.0 20.0 0.00 0.00 0.00 12 1016.3
20210615005559 99 139 11.0 16.0 0.00 0.00 0.00 11 1016.3
20210615005053 99 155 9.0 16.0 0.00 0.00 0.00 11 1016.2
20210615004725 100 121 7.0 23.0 0.00 0.00 0.00 11 1016.5
20210615004052 101 145 9.0 23.0 0.00 0.00 0.00 10 1016.7
20210615003556 103 359 4.0 9.0 0.00 0.00 0.00 10 1016.0
20210615003215 104 77 3.0 9.0 0.00 0.00 0.00 8 1015.8
20210615002555 104 167 4.0 12.0 0.00 0.00 0.00 9 1015.7
20210615002057 104 123 8.0 12.0 0.00 0.00 0.00 8 1015.7
20210615001714 104 119 6.0 10.0 0.00 0.00 0.00 8 1015.7
20210615001055 104 181 5.0 9.0 0.00 0.00 0.00 8 1015.7
20210615000631 105 179 2.0 8.0 0.00 0.00 0.00 8 1015.7
20210615000215 105 232 0.0 6.0 0.00 0.00 0.00 8 1015.7
20210614235559 105 0 1.0 4.0 0.00 0.00 0.00 9 1015.8
20210614235106 105 229 2.0 8.0 0.00 0.00 0.00 9 1015.8
20210614234704 104 226 4.0 8.0 0.00 0.00 0.00 9 1015.9
20210614234055 105 268 4.0 8.0 0.00 0.00 0.00 9 1015.9
20210614233555 105 257 1.0 13.0 0.00 0.00 0.00 9 1015.9
20210614233146 105 266 5.0 26.0 0.00 0.00 0.00 9 1016.1
20210614232554 106 242 8.0 26.0 0.00 0.00 0.00 8 1016.2
20210614232109 105 171 0.0 8.0 0.00 0.00 0.00 9 1016.2
20210614231641 105 341 4.0 9.0 0.00 0.00 0.00 8 1016.4
20210614231104 105 340 5.0 9.0 0.00 0.00 0.00 8 1016.4
20210614230554 105 352 2.0 6.0 0.00 0.00 0.00 8 1016.5
20210614230203 105 271 2.0 7.0 0.00 0.00 0.00 9 1016.5
20210614225556 105 321 2.0 7.0 0.00 0.00 0.00 9 1016.6
20210614225054 104 304 3.0 7.0 0.00 0.00 0.00 9 1016.9
20210614224627 104 283 2.0 6.0 0.00 0.00 0.00 9 1016.9
20210614224058 104 342 4.0 7.0 0.00 0.00 0.00 9 1017.0
20210614223554 104 320 1.0 7.0 0.00 0.00 0.00 9 1017.1
20210614223201 104 308 3.0 6.0 0.00 0.00 0.00 9 1017.2
20210614222554 104 1 1.0 4.0 0.00 0.00 0.00 9 1017.2
20210614222053 103 0 1.0 8.0 0.00 0.00 0.00 9 1017.2
20210614221639 103 16 3.0 8.0 0.00 0.00 0.00 9 1017.3
20210614221053 103 54 3.0 10.0 0.00 0.00 0.00 9 1017.3
20210614220600 103 182 3.0 14.0 0.00 0.00 0.00 9 1017.4
20210614220231 103 103 8.0 14.0 0.00 0.00 0.00 9 1017.5
20210614215616 103 116 8.0 12.0 0.00 0.00 0.00 10 1017.5
20210614215056 102 129 1.0 9.0 0.00 0.00 0.00 10 1017.6
20210614214738 102 302 3.0 10.0 0.00 0.00 0.00 10 1017.6
20210614214054 102 180 2.0 11.0 0.00 0.00 0.00 10 1017.6
20210614213554 102 64 5.0 11.0 0.00 0.00 0.00 10 1017.6
20210614213133 102 119 4.0 9.0 0.00 0.00 0.00 10 1017.7
20210614212554 101 146 4.0 9.0 0.00 0.00 0.00 10 1017.7
20210614212056 101 154 4.0 9.0 0.00 0.00 0.00 10 1017.8
20210614211636 101 0 6.0 9.0 0.00 0.00 0.00 11 1017.9
20210614211053 101 165 4.0 8.0 0.00 0.00 0.00 11 1018.0
20210614210602 100 148 2.0 21.0 0.00 0.00 0.00 11 1018.0
20210614210230 100 185 7.0 21.0 0.00 0.00 0.00 11 1018.1
20210614205553 100 176 11.0 21.0 0.00 0.00 0.00 12 1018.1
20210614205053 101 173 12.0 21.0 0.00 0.00 0.00 11 1018.2
20210614204733 101 158 3.0 9.0 0.00 0.00 0.00 11 1018.2
20210614204105 101 94 3.0 14.0 0.00 0.00 0.00 10 1018.2
20210614203631 101 20 8.0 14.0 0.00 0.00 0.00 10 1018.2
20210614203148 102 68 9.0 18.0 0.00 0.00 0.00 10 1018.2
20210614202554 103 98 10.0 18.0 0.00 0.00 0.00 10 1018.2
20210614202053 105 139 9.0 13.0 0.00 0.00 0.00 9 1018.1
20210614201647 104 134 3.0 11.0 0.00 0.00 0.00 10 1018.2
20210614201100 104 84 6.0 12.0 0.00 0.00 0.00 9 1018.3
20210614200553 104 131 3.0 12.0 0.00 0.00 0.00 10 1018.4
20210614200130 103 14 4.0 17.0 0.00 0.00 0.00 10 1018.4
20210614195610 104 39 8.0 17.0 0.00 0.00 0.00 10 1018.6
20210614195053 104 18 7.0 12.0 0.00 0.00 0.00 10 1018.6
20210614194721 103 47 2.0 8.0 0.00 0.00 0.00 10 1018.7
20210614194059 103 302 3.0 9.0 0.00 0.00 0.00 10 1018.8
20210614193559 103 348 2.0 10.0 0.00 0.00 0.00 10 1018.8
20210614193210 103 203 4.0 10.0 0.00 0.00 0.00 10 1019.1
20210614192616 102 108 3.0 6.0 0.00 0.00 0.00 10 1019.1
20210614192055 101 51 2.0 10.0 0.00 0.00 0.00 11 1019.2
20210614191727 101 70 3.0 10.0 0.00 0.00 0.00 11 1019.4
20210614191105 102 51 2.0 9.0 0.00 0.00 0.00 11 1019.5
20210614190553 102 355 3.0 7.0 0.00 0.00 0.00 11 1019.6
20210614190214 101 31 3.0 7.0 0.00 0.00 0.00 11 1019.6
20210614185558 101 297 3.0 9.0 0.00 0.00 0.00 11 1019.8
20210614185059 101 12 5.0 9.0 0.00 0.00 0.00 11 1019.8
20210614184651 101 19 4.0 8.0 0.00 0.00 0.00 11 1019.7
20210614184054 100 273 4.0 11.0 0.00 0.00 0.00 11 1019.9
20210614183555 101 290 5.0 11.0 0.00 0.00 0.00 12 1019.9
20210614183142 101 1 1.0 9.0 0.00 0.00 0.00 11 1019.9
20210614182604 101 190 3.0 9.0 0.00 0.00 0.00 11 1020.1
20210614182054 101 71 3.0 10.0 0.00 0.00 0.00 11 1020.1
20210614181636 100 28 2.0 10.0 0.00 0.00 0.00 11 1020.2
20210614181053 100 26 3.0 10.0 0.00 0.00 0.00 11 1020.2
20210614180559 100 359 3.0 10.0 0.00 0.00 0.00 11 1020.4
20210614180130 100 65 1.0 5.0 0.00 0.00 0.00 11 1020.4
20210614175555 99 68 1.0 8.0 0.00 0.00 0.00 11 1020.4
20210614175053 99 0 3.0 8.0 0.00 0.00 0.00 11 1020.4
20210614174616 100 53 4.0 7.0 0.00 0.00 0.00 12 1020.5
20210614174054 99 52 3.0 6.0 0.00 0.00 0.00 12 1020.5
20210614173554 99 320 3.0 6.0 0.00 0.00 0.00 12 1020.5
20210614173158 98 0 2.0 4.0 0.00 0.00 0.00 12 1020.7
20210614172609 98 239 1.0 6.0 0.00 0.00 0.00 12 1020.7
20210614172102 98 131 2.0 6.0 0.00 0.00 0.00 12 1020.7
20210614171636 97 24 3.0 9.0 0.00 0.00 0.00 12 1020.7
20210614171103 97 84 5.0 9.0 0.00 0.00 0.00 12 1020.7
20210614170554 97 19 3.0 8.0 0.00 0.00 0.00 12 1020.7
20210614170159 97 75 4.0 8.0 0.00 0.00 0.00 12 1020.7
20210614165553 97 44 3.0 8.0 0.00 0.00 0.00 12 1020.7
20210614165054 96 27 3.0 8.0 0.00 0.00 0.00 13 1020.8
20210614164744 96 66 3.0 8.0 0.00 0.00 0.00 12 1020.8
20210614164056 96 60 5.0 8.0 0.00 0.00 0.00 12 1020.9
20210614163556 95 94 4.0 8.0 0.00 0.00 0.00 12 1020.8
20210614163317 95 65 4.0 8.0 0.00 0.00 0.00 13 1021.0
20210614162605 95 52 3.0 8.0 0.00 0.00 0.00 12 1021.0
20210614162053 95 69 3.0 7.0 0.00 0.00 0.00 12 1021.0
20210614161630 95 46 3.0 8.0 0.00 0.00 0.00 12 1021.0
20210614161054 94 64 4.0 8.0 0.00 0.00 0.00 11 1021.0
20210614160623 94 46 3.0 5.0 0.00 0.00 0.00 11 1021.0
20210614160159 94 60 3.0 6.0 0.00 0.00 0.00 11 1021.0
20210614155554 94 359 3.0 6.0 0.00 0.00 0.00 11 1021.0
20210614155053 93 358 2.0 5.0 0.00 0.00 0.00 10 1021.0
20210614154724 93 356 3.0 5.0 0.00 0.00 0.00 10 1021.0
20210614154059 93 360 3.0 7.0 0.00 0.00 0.00 9 1021.0
20210614153552 92 351 3.0 7.0 0.00 0.00 0.00 9 1021.0
20210614153145 92 346 3.0 6.0 0.00 0.00 0.00 8 1021.0
20210614152553 91 358 3.0 6.0 0.00 0.00 0.00 10 1020.9
20210614152053 91 27 3.0 6.0 0.00 0.00 0.00 9 1021.0
20210614151832 91 3 4.0 6.0 0.00 0.00 0.00 8 1020.9
20210614151052 90 357 3.0 5.0 0.00 0.00 0.00 8 1020.9
20210614150554 90 6 4.0 5.0 0.00 0.00 0.00 8 1020.9
20210614150325 90 3 3.0 5.0 0.00 0.00 0.00 8 1020.9
20210614145600 89 12 3.0 6.0 0.00 0.00 0.00 9 1020.9
20210614145101 89 17 4.0 7.0 0.00 0.00 0.00 9 1020.9
20210614144721 89 25 4.0 7.0 0.00 0.00 0.00 9 1020.8
20210614144055 90 1 3.0 6.0 0.00 0.00 0.00 8 1020.7
20210614143605 89 320 3.0 6.0 0.00 0.00 0.00 7 1020.8
20210614143126 89 328 3.0 6.0 0.00 0.00 0.00 7 1020.6
20210614142553 89 349 3.0 6.0 0.00 0.00 0.00 8 1020.7
20210614142057 88 323 3.0 5.0 0.00 0.00 0.00 8 1020.7
20210614141620 86 0 0.0 2.0 0.00 0.00 0.00 10 1020.6
20210614141119 85 294 0.0 1.0 0.00 0.00 0.00 11 1020.6
20210614140557 84 0 0.0 1.0 0.00 0.00 0.00 12 1020.6
20210614140154 84 0 0.0 2.0 0.00 0.00 0.00 11 1020.5
20210614135554 83 0 0.0 3.0 0.00 0.00 0.00 11 1020.5
20210614135055 82 300 0.0 3.0 0.00 0.00 0.00 10 1020.6
20210614134738 81 311 0.0 3.0 0.00 0.00 0.00 10 1020.5
20210614134053 80 288 1.0 4.0 0.00 0.00 0.00 11 1020.5
20210614133553 79 0 1.0 5.0 0.00 0.00 0.00 12 1020.6
20210614133146 77 271 2.0 5.0 0.00 0.00 0.00 13 1020.5
20210614132559 76 285 1.0 4.0 0.00 0.00 0.00 14 1020.4
20210614132055 75 248 2.0 4.0 0.00 0.00 0.00 16 1020.4
20210614131715 74 242 1.0 4.0 0.00 0.00 0.00 17 1020.3
20210614131055 73 234 2.0 4.0 0.00 0.00 0.00 16 1020.3
20210614130613 72 242 1.0 4.0 0.00 0.00 0.00 17 1020.2
20210614130230 72 249 1.0 4.0 0.00 0.00 0.00 18 1020.2
20210614125554 71 279 1.0 3.0 0.00 0.00 0.00 18 1020.2
20210614125055 71 265 1.0 3.0 0.00 0.00 0.00 19 1020.1
20210614124700 71 265 1.0 3.0 0.00 0.00 0.00 19 1020.1
20210614124054 71 265 1.0 3.0 0.00 0.00 0.00 18 1020.1
20210614123558 72 264 1.0 2.0 0.00 0.00 0.00 16 1019.9
20210614123152 73 264 0.0 2.0 0.00 0.00 0.00 16 1019.8
20210614122554 74 0 0.0 3.0 0.00 0.00 0.00 15 1019.8
20210614122053 75 0 1.0 4.0 0.00 0.00 0.00 15 1019.7
20210614121628 75 265 2.0 4.0 0.00 0.00 0.00 16 1019.5
20210614121053 75 255 2.0 3.0 0.00 0.00 0.00 16 1019.5
20210614120602 74 255 2.0 3.0 0.00 0.00 0.00 16 1019.3
20210614120145 73 249 2.0 3.0 0.00 0.00 0.00 15 1019.2
20210614115555 72 248 2.0 3.0 0.00 0.00 0.00 15 1019.1
20210614115054 72 265 1.0 3.0 0.00 0.00 0.00 14 1019.1
20210614114621 72 245 1.0 3.0 0.00 0.00 0.00 14 1018.9
20210614114053 73 243 1.0 3.0 0.00 0.00 0.00 13 1018.8
20210614113620 73 242 0.0 3.0 0.00 0.00 0.00 13 1018.9
20210614113149 73 242 1.0 4.0 0.00 0.00 0.00 13 1018.9
20210614112553 73 233 1.0 4.0 0.00 0.00 0.00 13 1018.9
20210614112054 73 229 2.0 4.0 0.00 0.00 0.00 13 1018.8
20210614111623 74 251 1.0 4.0 0.00 0.00 0.00 12 1019.0
20210614111055 74 246 1.0 4.0 0.00 0.00 0.00 12 1019.0
20210614110555 75 250 2.0 5.0 0.00 0.00 0.00 12 1019.0
20210614110119 75 225 3.0 6.0 0.00 0.00 0.00 12 1018.9
20210614105603 75 236 3.0 6.0 0.00 0.00 0.00 12 1018.9
20210614105053 74 262 1.0 6.0 0.00 0.00 0.00 12 1019.0
20210614104701 74 244 3.0 7.0 0.00 0.00 0.00 12 1019.1
20210614104110 75 222 5.0 7.0 0.00 0.00 0.00 12 1019.1
20210614103552 74 242 3.0 6.0 0.00 0.00 0.00 12 1019.1
20210614103234 74 242 2.0 4.0 0.00 0.00 0.00 12 1019.3
20210614102558 75 254 2.0 7.0 0.00 0.00 0.00 11 1019.3
20210614102053 74 243 4.0 7.0 0.00 0.00 0.00 12 1019.5
20210614101639 73 235 3.0 5.0 0.00 0.00 0.00 12 1019.5
20210614101053 73 247 1.0 4.0 0.00 0.00 0.00 12 1019.4
20210614100555 74 243 1.0 5.0 0.00 0.00 0.00 12 1019.5
20210614100222 75 247 3.0 6.0 0.00 0.00 0.00 12 1019.6
20210614095557 75 240 3.0 6.0 0.00 0.00 0.00 11 1019.5
20210614095053 75 243 3.0 6.0 0.00 0.00 0.00 11 1019.6
20210614094653 75 248 3.0 6.0 0.00 0.00 0.00 11 1019.5
20210614094105 74 264 1.0 5.0 0.00 0.00 0.00 12 1019.6
20210614093554 74 224 1.0 5.0 0.00 0.00 0.00 12 1019.6
20210614093154 74 251 1.0 4.0 0.00 0.00 0.00 12 1019.7
20210614092553 74 246 1.0 4.0 0.00 0.00 0.00 12 1019.7
20210614092053 75 252 2.0 4.0 0.00 0.00 0.00 12 1019.8
20210614091621 75 265 2.0 4.0 0.00 0.00 0.00 12 1019.8
20210614091056 76 265 2.0 4.0 0.00 0.00 0.00 11 1019.8
20210614090554 77 278 2.0 6.0 0.00 0.00 0.00 11 1019.8
20210614090230 77 286 3.0 6.0 0.00 0.00 0.00 11 1019.8
20210614085559 78 291 3.0 5.0 0.00 0.00 0.00 11 1019.8
20210614085054 79 289 2.0 5.0 0.00 0.00 0.00 11 1019.8
20210614084651 78 328 3.0 5.0 0.00 0.00 0.00 11 1019.9
20210614084056 76 322 2.0 4.0 0.00 0.00 0.00 12 1019.9
20210614083556 75 1 0.0 4.0 0.00 0.00 0.00 12 1019.9
20210614083151 75 0 2.0 4.0 0.00 0.00 0.00 11 1020.0
20210614082554 76 71 1.0 4.0 0.00 0.00 0.00 11 1020.0
20210614082104 77 0 0.0 2.0 0.00 0.00 0.00 12 1019.7
20210614081626 77 0 0.0 2.0 0.00 0.00 0.00 11 1019.6
20210614081114 78 229 1.0 2.0 0.00 0.00 0.00 10 1019.5
20210614080604 77 228 0.0 2.0 0.00 0.00 0.00 10 1019.6
20210614080220 78 0 0.0 3.0 0.00 0.00 0.00 10 1019.5
20210614075602 78 0 1.0 3.0 0.00 0.00 0.00 10 1019.5
20210614075125 79 216 1.0 3.0 0.00 0.00 0.00 10 1019.5
20210614074652 79 0 1.0 2.0 0.00 0.00 0.00 10 1019.5
20210614074101 79 216 0.0 2.0 0.00 0.00 0.00 10 1019.5
20210614073554 80 216 0.0 2.0 0.00 0.00 0.00 10 1019.5
20210614073139 80 0 0.0 2.0 0.00 0.00 0.00 10 1019.5
20210614072603 79 216 0.0 3.0 0.00 0.00 0.00 10 1019.5
20210614072053 79 0 1.0 3.0 0.00 0.00 0.00 11 1019.6
20210614071646 81 285 0.0 2.0 0.00 0.00 0.00 12 1019.6
20210614071054 81 0 0.0 2.0 0.00 0.00 0.00 10 1019.7
20210614070553 81 0 0.0 2.0 0.00 0.00 0.00 10 1019.8
20210614070149 81 285 0.0 2.0 0.00 0.00 0.00 9 1019.7
20210614065554 81 285 1.0 2.0 0.00 0.00 0.00 9 1019.8
20210614065053 81 285 1.0 3.0 0.00 0.00 0.00 10 1019.8
20210614064712 81 285 1.0 3.0 0.00 0.00 0.00 10 1019.8
20210614064054 81 282 1.0 3.0 0.00 0.00 0.00 10 1019.8
20210614063554 81 285 1.0 2.0 0.00 0.00 0.00 9 1019.8
20210614063137 81 285 0.0 2.0 0.00 0.00 0.00 9 1019.8
20210614062602 82 285 1.0 3.0 0.00 0.00 0.00 9 1019.7
20210614062110 82 286 1.0 3.0 0.00 0.00 0.00 9 1019.8
20210614061654 82 287 2.0 9.0 0.00 0.00 0.00 9 1019.7
20210614061054 83 290 3.0 9.0 0.00 0.00 0.00 9 1019.7
20210614060605 82 298 3.0 5.0 0.00 0.00 0.00 9 1019.8
20210614060205 82 273 1.0 4.0 0.00 0.00 0.00 9 1019.7
20210614055607 82 270 1.0 4.0 0.00 0.00 0.00 9 1019.8
20210614055056 82 242 2.0 4.0 0.00 0.00 0.00 9 1019.8
20210614054755 82 245 1.0 5.0 0.00 0.00 0.00 9 1019.8
20210614054056 82 272 2.0 6.0 0.00 0.00 0.00 10 1019.8
20210614053553 82 298 3.0 6.0 0.00 0.00 0.00 10 1019.8
20210614053135 83 287 2.0 5.0 0.00 0.00 0.00 10 1019.8
20210614052551 84 288 2.0 5.0 0.00 0.00 0.00 10 1019.8
20210614052054 85 304 2.0 5.0 0.00 0.00 0.00 9 1019.7
20210614051649 84 316 3.0 5.0 0.00 0.00 0.00 9 1019.7
20210614051053 85 338 2.0 6.0 0.00 0.00 0.00 9 1019.8
20210614050553 85 323 4.0 7.0 0.00 0.00 0.00 8 1019.5
20210614050112 85 314 4.0 7.0 0.00 0.00 0.00 8 1019.3
20210614045558 85 299 5.0 7.0 0.00 0.00 0.00 7 1019.2
20210614045052 86 306 3.0 5.0 0.00 0.00 0.00 7 1019.2
20210614044715 86 304 3.0 6.0 0.00 0.00 0.00 7 1019.2
20210614044052 87 293 4.0 6.0 0.00 0.00 0.00 7 1019.2
20210614043553 87 327 4.0 7.0 0.00 0.00 0.00 7 1019.1
20210614043225 88 323 3.0 8.0 0.00 0.00 0.00 7 1019.0
20210614042555 88 315 5.0 8.0 0.00 0.00 0.00 6 1018.9
20210614042100 89 278 4.0 7.0 0.00 0.00 0.00 7 1018.7
20210614041621 89 292 4.0 7.0 0.00 0.00 0.00 7 1018.7
20210614041102 89 349 4.0 7.0 0.00 0.00 0.00 7 1018.7
20210614040554 89 292 4.0 6.0 0.00 0.00 0.00 6 1018.7
20210614040300 89 286 3.0 6.0 0.00 0.00 0.00 7 1018.5
20210614035552 89 321 4.0 6.0 0.00 0.00 0.00 7 1018.5
20210614035051 89 300 3.0 6.0 0.00 0.00 0.00 7 1018.5
20210614034716 90 276 2.0 6.0 0.00 0.00 0.00 6 1018.4